{"data":{"norad_id":55426,"intl_designator":"2023-014AM","name":"STARLINK-5638","alt_names":[],"object_type":"PAYLOAD","status":"ACTIVE","operator":null,"country":"US","launch_date":"2023-01-31","launch_site_code":"AFWTR","launch_vehicle":null,"mission":null,"orbit_class":"UNKNOWN","rcs_meters":null,"size_class":null,"mass_kg":null,"dimensions":null,"purposes":["comms"],"wikipedia_slug":null,"has_3d_model":false,"image_url":null,"decayed_at":null,"tle_current":{"epoch":"2026-05-25T00:41:12.012000Z","epoch_age_seconds":65960,"freshness":"FRESH","line1":"1 55426U 23014AM  26145.02861125 -.00000075  00000+0  15391-5 0  9991","line2":"2 55426  69.9992 252.1109 0003312 269.7605  90.3174 14.98329414182990","mean_motion":14.98329414,"eccentricity":0.0003312,"inclination_deg":69.9992,"raan_deg":252.1109,"arg_perigee_deg":269.7605,"mean_anomaly_deg":90.3174,"bstar":1.5391e-6,"rev_number":18299,"period_min":96.107036713357,"perigee_km":569.755798616,"apogee_km":574.35960758733,"semimajor_km":6950.1947031017,"source":"CELESTRAK","updated_at":"2026-05-25T13:38:17.799150Z"}}}